Location: Asheville, NC
(35.6000°N, 82.5500°W)
Time: 00:23:34
(UTC-04:00)

BEESAT 2 - Pass Details

Date: 17 March 2018
Orbit: 502 x 533 km, 64.9° (Epoch: 22 June)

Event Time Altitude Azimuth Distance (km) Brightness Sun altitude
Rises 20:45:14 0° 231° (SW) 2,635 ? -14.1°
Reaches altitude 10° 20:47:34 10° 241° (WSW) 1,757 ? -14.6°
Maximum altitude 20:51:06 31° 305° (NW) 939 ? -15.3°
Drops below altitude 10° 20:54:41 10° 9° (N) 1,780 ? -16.0°
Sets 20:57:04 0° 20° (NNE) 2,677 ? -16.5°
